Weather History for Skagway, AK

Change the Weather History Date:

Tuesday, August 6, 2013

  Actual Average Record
Temperature  
Mean Temperature 61 °F -  
Max Temperature 70 °F 64 °F 79 °F (1968)
Min Temperature 53 °F 50 °F 41 °F (1968)
Degree Days  
Heating Degree Days 4    
Growing Degree Days 11 (Base 50)    
Moisture  
Dew Point 53 °F    
Average Humidity 86    
Maximum Humidity 100    
Minimum Humidity 57    
Precipitation  
Precipitation 0.00 in - - ()
Sea Level Pressure  
Sea Level Pressure 30.05 in    
Wind  
Wind Speed 2 mph (SW)    
Max Wind Speed 25 mph    
Max Gust Speed 29 mph    
Visibility 7 miles    
Events      
Averages and records for this station are not official NWS values.
T = Trace of Precipitation, MM = Missing Value Source: NWS Daily Summary

Daily Weather History Graph

Daily Weather History Graph

Search for Another Location

Airport:

Trip Planner

Search our weather history database for the weather conditions in past years. The results will help you decide how hot, cold, wet, or windy it might be!

Date:

Astronomy

Aug. 06, 2013 Rise Set
Actual Time 4:58 AM AKDT 9:14 PM AKDT
Civil Twilight 4:03 AM AKDT 10:08 PM AKDT
Nautical Twilight 2:32 AM AKDT 11:36 PM AKDT
Astronomical Twilight Sun does not rise Sun does not rise
Moon 5:14 AM AKDT (8/6) 8:26 PM AKDT (8/6)
Length of Visible Light 18h 05m
Length of Day
16h 16m
Waning Crescent, 0% of the Moon is Illuminated
Aug 6
Waning Crescent
Aug 6
New
Aug 14
First Quarter
Aug 20
Full
Aug 28
Last Quarter

Hourly Weather History & Observations

Time (AKDT) Temp. Dew Point Humidity Pressure Visibility Wind Dir Wind Speed Gust Speed Precip Events Conditions
12:53 AM 57.0 °F 55.0 °F 93% 30.08 in 10.0 mi Calm Calm - N/A   Overcast
1:10 AM 57.2 °F 55.4 °F 94% 30.08 in 10.0 mi Calm Calm - N/A   Overcast
1:53 AM 55.9 °F 54.0 °F 93% 30.08 in 2.5 mi Calm Calm - N/A   Overcast
2:02 AM 57.2 °F 53.6 °F 88% 30.09 in 9.0 mi Calm Calm - N/A   Overcast
2:42 AM 55.4 °F 53.6 °F 94% 30.07 in 1.8 mi Calm Calm - N/A   Overcast
2:53 AM 54.0 °F 53.1 °F 97% 30.08 in 1.0 mi Calm Calm - N/A   Overcast
3:08 AM 53.6 °F 53.6 °F 100% 30.07 in 1.8 mi Calm Calm - N/A   Overcast
3:10 AM 53.6 °F 53.6 °F 100% 30.07 in 4.0 mi Calm Calm - N/A   Overcast
3:41 AM 55.4 °F 53.6 °F 94% 30.07 in 2.5 mi Calm Calm - N/A   Overcast
3:43 AM 53.6 °F 53.6 °F 100% 30.09 in 1.0 mi Calm Calm - N/A   Overcast
3:51 AM 53.6 °F 51.8 °F 94% 30.09 in 0.8 mi Calm Calm - N/A   Overcast
3:53 AM 54.0 °F 53.1 °F 97% 30.09 in 1.0 mi Calm Calm - N/A   Overcast
3:58 AM 55.4 °F 53.6 °F 94% 30.08 in 2.0 mi Calm Calm - N/A   Overcast
4:09 AM 55.4 °F 53.6 °F 94% 30.07 in 10.0 mi Calm Calm - N/A   Overcast
4:17 AM 55.4 °F 53.6 °F 94% 30.08 in 10.0 mi Calm Calm - N/A   Overcast
4:36 AM 53.6 °F 51.8 °F 94% 30.08 in 1.8 mi Calm Calm - N/A   Overcast
4:46 AM 55.4 °F 51.8 °F 88% 30.09 in 3.0 mi Calm Calm - N/A   Overcast
4:53 AM 55.9 °F 53.1 °F 90% 30.08 in 10.0 mi Calm Calm - N/A   Overcast
5:13 AM 55.4 °F 53.6 °F 94% 30.08 in 7.0 mi Calm Calm - N/A   Overcast
5:16 AM 53.6 °F 53.6 °F 100% 30.08 in 1.2 mi Calm Calm - N/A   Overcast
5:25 AM 53.6 °F 51.8 °F 94% 30.08 in 1.8 mi Calm Calm - N/A   Overcast
5:27 AM 53.6 °F 51.8 °F 94% 30.08 in 5.0 mi Calm Calm - N/A   Overcast
5:35 AM 55.4 °F 53.6 °F 94% 30.09 in 10.0 mi Calm Calm - N/A   Overcast
5:53 AM 55.9 °F 54.0 °F 93% 30.08 in 10.0 mi Calm Calm - N/A   Overcast
6:10 AM 55.4 °F 53.6 °F 94% 30.08 in 10.0 mi Calm Calm - N/A   Overcast
6:20 AM 55.4 °F 53.6 °F 94% 30.08 in 10.0 mi Calm Calm - N/A   Overcast
6:36 AM 55.4 °F 53.6 °F 94% 30.10 in 10.0 mi Calm Calm - N/A   Overcast
6:53 AM 55.9 °F 53.1 °F 90% 30.08 in 10.0 mi Calm Calm - N/A   Overcast
7:08 AM 57.2 °F 53.6 °F 88% 30.08 in 10.0 mi Calm Calm - N/A   Overcast
7:16 AM 57.2 °F 53.6 °F 88% 30.08 in 10.0 mi Calm Calm - N/A   Overcast
7:53 AM 57.0 °F 54.0 °F 89% 30.08 in 10.0 mi Calm Calm - N/A   Overcast
8:53 AM 62.1 °F 54.0 °F 75% 30.08 in 10.0 mi Calm Calm - N/A   Overcast
9:53 AM 63.0 °F 54.0 °F 72% 30.06 in 10.0 mi SSW 3.5 mph - N/A   Scattered Clouds
10:53 AM 64.0 °F 53.1 °F 67% 30.04 in 10.0 mi SSW 4.6 mph - N/A   Clear
11:53 AM 57.0 °F 52.0 °F 83% 30.03 in 10.0 mi SW 6.9 mph - N/A   Clear
12:53 PM 57.0 °F 52.0 °F 83% 30.01 in 10.0 mi SW 9.2 mph - N/A   Clear
1:53 PM 60.1 °F 51.1 °F 72% 29.99 in 10.0 mi SW 13.8 mph 20.7 mph N/A   Clear
2:53 PM 66.9 °F 53.1 °F 61% 29.97 in 10.0 mi SSW 18.4 mph - N/A   Clear
3:53 PM 64.9 °F 53.1 °F 65% 29.95 in 10.0 mi SW 21.9 mph - N/A   Clear
4:53 PM 66.9 °F 53.1 °F 61% 29.94 in 10.0 mi SSW 25.3 mph - N/A   Clear
5:53 PM 69.1 °F 53.1 °F 57% 29.94 in 10.0 mi SSW 21.9 mph 28.8 mph N/A   Clear
6:53 PM 64.9 °F 53.1 °F 65% 29.94 in 10.0 mi SW 18.4 mph - N/A   Clear
7:53 PM 63.0 °F 52.0 °F 67% 29.95 in 10.0 mi SSW 16.1 mph - N/A   Clear
8:53 PM 63.0 °F 51.1 °F 65% 29.98 in 10.0 mi Calm Calm - N/A   Clear
9:53 PM 60.1 °F 52.0 °F 75% 29.99 in 10.0 mi NNE 3.5 mph - N/A   Clear
10:53 PM 57.9 °F 51.1 °F 78% 30.00 in 10.0 mi Calm Calm - N/A   Clear
11:53 PM 55.9 °F 51.1 °F 84% 30.00 in 10.0 mi Calm Calm - N/A   Clear